Regional Weather Roundup
Issued by NWS

Home | Current Version | Previous Version | Graphics & Text | Print | Product List | Glossary On
Versions: 1 2 3 4 5 6 7 8 9 10 11 12 13 14 15 16 17 18 19 20 21 22 23 24 25 26 27 28 29 30 31 32 33 34 35 36 37 38 39 40 41 42 43 44 45 46 47 48 49 50
000
ASUS43 KBIS 050502
RWRND

NORTH DAKOTA REGIONAL WEATHER ROUNDUP
NATIONAL WEATHER SERVICE BISMARCK ND
1200 AM CDT WED AUG 05 2015

NOTE: "FAIR" INDICATES FEW OR NO CLOUDS BELOW 12,000 FEET WITH NO
SIGNIFICANT WEATHER AND/OR OBSTRUCTIONS TO VISIBILITY.


NDZ001>003-009>011-017-050600-
NORTHWEST NORTH DAKOTA

CITY           SKY/WX    TMP DP  RH WIND       PRES   REMARKS
WILLISTON      CLOUDY    76  56  49 SE8       29.91R
MINOT          MOCLDY    64  52  64 E9        29.96F
MINOT AFB      MOCLDY    62  55  78 SE10      29.96S
$$

NDZ018>021-031>035-040>046-050600-
SOUTHWEST NORTH DAKOTA

CITY           SKY/WX    TMP DP  RH WIND       PRES   REMARKS
BISMARCK       PTCLDY    69  61  75 E7        29.98R
DICKINSON      CLOUDY    69  60  73 SW9       29.98R
GARRISON         N/A     67  57  70 SE10      29.96S
HETTINGER ARPT CLOUDY    73  56  54 SW7       30.03R
$$

NDZ004>008-012>016-024-026-027-054-050600-
NORTHEAST NORTH DAKOTA

CITY           SKY/WX    TMP DP  RH WIND       PRES   REMARKS
GRAND FORKS    PTCLDY    64  55  72 NE7       30.03S
GRND FRKS AFB  PTCLDY    63  55  75 E7        30.04S
DEVILS LAKE    CLEAR     63  52  67 E9        30.03
$$

NDZ022-023-025-028>030-036>039-047>053-050600-
SOUTHEAST NORTH DAKOTA

CITY           SKY/WX    TMP DP  RH WIND       PRES   REMARKS
FARGO          CLEAR     62  56  80 E3        30.02S
JAMESTOWN      CLEAR     62  55  77 E8        30.02S
$$



USA.gov is the U.S. government's official web portal to all federal, state and local government web resources and services.